FREGAT DEB, 45878

Orbit data source: Space-Track

FREGAT DEB, 45878 is space debris in LEO originally from a launch on Mon, 18 Jul 2011 UTC launched from the Tyuratam Missile And Space Complex (TTMTR). Debris objects in space refer to the collection of defunct objects orbiting the Earth. Examples of debris include non-operational satellites, rocket bodies, and fragments generated from explosions, collisions, or faulty payload assembly.

Loading next visibility...
Identifier
45878, 2011-037CX
Orbit
LEO
Country
Flag of CISCIS
Related business
Manufacturer
Lavochkin
Mission
Spacecraft
Bus & Motor
Unknown
Mass
Unknown
Launch date (UTC)
2011-07-18 (14 years ago)
Launch vehicle
Unknown
Launch site
Tyuratam Missile And Space Complex (TTMTR)
Object type
Payload
Rocket body
Debris
Shape & HBR
Unknown shape, 0.1 m
Radar Cross Section
Small (<0.1 m²)

Expand to show TLE details & history
Last TLE update: 15 hours ago

TLE from 15 hours ago
0 FREGAT DEB
1 45878U 11037CX  25291.87252076  .00100119  00000-0  13354-1 0  9999
2 45878  51.4214  97.8465 1317053 107.5873 267.2936 12.56131618224378
Epoch: 2025-10-18T20:56Z
TLE epoch observation values (Epoch: 2025-10-18T20:56:25.793Z)
Latitude
0.00003°
Longitude
116.14175°
Altitude
1,620.787 km
Speed
6.979 km/s
True Right ascension
06h 31m 23s
True Declination
0° 00' 00"
Sunlit
Object was in daylight at epoch
Visualization orbit readout
Latitude
Unknown
Longitude
Unknown
Altitude
Unknown
Speed
Unknown
Apparent Right ascension
Unknown
Apparent Declination
Unknown
Sunlit
N/A
Visualization observer readout
Local Sidereal Time
06:32:21
Azimuth
Unknown
Elevation
Unknown
Doppler factor
Unknown
Orbital elements
Apogee altitude
2,469.055 km
Perigee altitude
409.823 km
Semi-major axis
7,817.576 km
Eccentricity
0.13171
Inclination
51.4214°
RAAN
97.8465°
Arg. of periapsis
107.5873°
True anomaly
252.50027°
Mean anomaly
267.2936°
Eccentric anomaly
259.86519°
Mean motion
3.14004 °/min
Orbital period
114.65 mins
BSTAR
0.013354
Loading maneuver chart data...
Computing Atmospheric mass density...
Loading historical data...
Loading historical data...
Loading historical data...
Loading historical data...
Loading historical data...
Loading historical data...
Loading historical data...

Documentation

Showing up to 5 results
|